WESTFORD NEEDLES, 2531

Orbit data source: Space-Track

WESTFORD NEEDLES, 2531 is space debris in LEO originally from a launch on Thu, 09 May 1963 UTC launched from the Air Force Western Test Range (AFWTR). Debris objects in space refer to the collection of defunct objects orbiting the Earth. Examples of debris include non-operational satellites, rocket bodies, and fragments generated from explosions, collisions, or faulty payload assembly.

Loading next visibility...
Identifier
2531, 1963-014AK
Orbit
LEO
Last TLE update
1 year ago
Origin
Manufacturer
Unknown
Mission
Spacecraft
Bus & Motor
Unknown
Mass
Unknown
Launch date (UTC)
1963-05-09 (62 years ago)
Launch vehicle
Unknown
Launch site
Air Force Western Test Range (AFWTR)
Object type
Payload
Rocket body
Debris
Shape & HBR
Unknown
Radar Cross Section
Medium (>0.1 m² and <1 m²)

Expand to show TLE details & history

TLE from 1 year ago
0 WESTFORD NEEDLES
1  2531U 63014AK  24152.18667443  .00000001  00000-0 -10627-2 0  9998
2  2531  87.3002 233.7703 0023550 107.9316 252.4109  8.67338680362575
Epoch: 2024-05-31T04:28Z
TLE epoch observation values (Epoch: 2024-05-31T04:28:48.67Z)
Latitude
-0.00008°
Longitude
-82.60187°
Altitude
3,637.583 km
Speed
6.307 km/s
True Right ascension
15h 35m 04s
True Declination
0° 00' 00"
Sunlit
Object was in full shadow at epoch
Visualization orbit readout
Latitude
26.34824°
Longitude
58.83408°
Altitude
3,625.38 km
Speed
6.316 km/s
Apparent Right ascension
01h 45m 18s
Apparent Declination
1° 30' 22"
Sunlit
Object is in daylight
Visualization observer readout
Local Sidereal Time
15:08:01
Azimuth
29.643° NE
Elevation
-44.464°
Doppler factor
1
Orbital elements
Apogee altitude
3,649.601 km
Perigee altitude
3,602.481 km
Semi-major axis
10,004.178 km
Eccentricity
0.00236
Inclination
87.3002°
RAAN
233.7703°
Arg. of periapsis
107.9316°
True anomaly
Unknown
Mean anomaly
252.4109°
Eccentric anomaly
Unknown
Mean motion
2.16906 °/min
Orbital period
165.97 mins
BSTAR
-0.0010627
Loading maneuver chart data...
Loading SW <> Apogee altitude chart data...

WESTFORD NEEDLES Visibility forecast

Observer location: undefined°, undefined°

Span
Click to sort rows by Start time (UTC) header in descending order
Start Az.
Max El. time (UTC)
Max El. Az.
Max El.
End time (UTC)
End Az.
9 mins2025-06-19 06:15:53.461Z302.364° NW2025-06-19 06:19:53.461Z315.759° NNW11.061°2025-06-19 06:24:53.461Z332.47° NNW
33 mins2025-06-19 12:12:53.461Z7.108° NNE2025-06-19 12:28:53.461Z75.558° E35.266°2025-06-19 12:45:53.461Z144.635° SSE
34 mins2025-06-19 14:58:53.461Z351.76° N2025-06-19 15:14:53.461Z285.428° WNW39.358°2025-06-19 15:32:53.461Z211.223° SW
12 mins2025-06-19 22:48:53.461Z69.917° E2025-06-19 22:54:53.461Z49.309° ENE13.359°2025-06-19 23:00:53.461Z28.91° NE
34 mins2025-06-20 01:17:53.461Z157.131° SSE2025-06-20 01:34:53.461Z77.742° E42.398°2025-06-20 01:51:53.461Z5.841° NNE
11 mins2025-06-20 04:06:53.461Z228.41° WSW2025-06-20 04:17:53.461Z266.617° W29.114°2025-06-20 04:17:53.461Z266.617° W
|